Vorticity
7 7 8 7 7 6 6 4 4 4 5 5 6 7 7 8 9 10 10 10 9 9 10 13 12 11 13 15 14 15 11 7 5 6 6 8 11 13 10 6 8 9 12
7 8 7 6 6 7 5 5 5 5 5 6 6 7 7 7 8 8 9 10 10 9 9 9 11 12 10 10 12 14 14 14 13 13 14 10 8 8 8 8 8 7 8
7 7 7 8 8 6 6 5 5 5 5 6 6 7 7 7 7 8 8 9 10 10 9 9 9 8 8 8 9 9 8 9 8 8 10 10 9 8 9 10 10 12 14
6 7 7 7 7 6 6 6 5 5 5 6 6 7 7 7 7 7 7 8 9 10 10 10 10 11 10 9 8 8 8 9 9 8 8 9 10 10 10 12 14 12 9
7 7 7 7 7 7 6 6 6 6 6 6 6 7 7 7 7 6 7 6 6 7 8 9 10 11 9 12 13 11 9 9 8 8 9 10 9 7 8 8 8 9 9
8 6 6 7 7 7 7 6 6 6 6 6 5 7 7 7 7 7 7 6 7 7 7 6 7 7 7 9 9 10 11 10 9 10 11 13 15 15 13 13 12 14 15
8 7 7 6 6 6 6 6 6 6 5 5 5 6 7 7 8 8 7 7 7 7 7 7 7 7 7 6 7 7 7 8 7 6 8 9 9 9 8 9 9 10 11
8 8 7 7 7 7 6 6 6 6 6 6 6 6 7 7 8 8 8 7 7 7 7 7 8 8 8 7 8 8 8 8 8 9 9 9 9 10 9 9 9 8 9
9 7 6 6 6 6 5 5 6 6 6 6 6 6 7 7 8 8 9 9 8 8 8 8 8 9 8 8 8 8 9 9 9 9 9 9 9 9 9 9 9 9 8
7 7 8 7 7 7 6 6 6 6 6 6 6 6 7 8 8 8 8 9 9 9 8 9 9 9 8 9 9 9 9 10 9 10 9 9 9 8 9 9 9 8 8
8 9 8 7 7 7 7 7 7 7 7 7 8 8 8 7 8 8 9 9 9 9 9 10 10 10 10 9 9 10 10 10 10 10 10 9 10 9 9 9 9 9 9
7 7 7 7 6 5 5 4 4 5 7 9 9 9 10 9 9 9 9 9 9 9 8 9 9 11 10 9 10 10 11 10 10 10 10 9 10 10 10 10 10 10 10
6 6 6 7 7 7 7 7 8 10 10 10 9 10 11 9 10 9 8 8 9 8 8 9 10 10 9 9 10 11 11 10 10 10 10 10 10 10 10 10 10 10 10
7 6 6 6 8 10 12 13 14 16 15 12 10 11 11 11 12 10 8 11 9 8 8 9 10 11 9 10 11 11 10 9 10 10 10 9 10 10 10 10 10 11 10
20 19 18 15 15 16 16 16 16 18 15 13 15 14 14 14 12 10 12 10 8 8 8 10 12 11 11 11 11 10 9 9 10 9 9 9 10 11 10 10 12 12 10
6 10 13 16 16 16 17 18 18 17 16 16 16 14 11 10 9 9 9 9 9 9 9 13 13 12 12 11 10 9 9 9 9 9 10 10 12 12 12 12 13 11 11
21 15 14 14 14 14 15 16 13 12 11 8 7 8 9 11 11 12 13 13 14 14 16 16 15 13 11 9 8 8 10 11 13 11 12 13 12 12 11 12 12 11 9
18 16 14 13 12 12 12 13 14 13 10 13 17 15 13 11 11 10 10 8 10 9 9 10 11 11 10 10 9 9 10 13 16 12 11 10 10 8 7 9 7 11 10
15 16 17 18 16 15 13 11 13 14 14 14 10 8 9 9 10 11 10 10 11 11 10 10 11 12 11 11 12 12 12 14 13 13 9 10 10 9 11 10 10 10 10
19 18 18 15 13 11 9 7 6 6 6 6 6 7 6 6 8 10 10 10 10 11 11 12 11 11 12 13 13 13 12 12 13 10 10 11 9 13 10 13 9 10 11
13 10 7 5 5 4 2 1 1 2 2 1 -2 1 6 8 8 7 9 8 9 8 8 10 12 12 13 13 14 13 12 12 13 11 12 7 11 10 10 9 11 11 11
2 -1 -1 0 -0 1 -0 2 3 0 3 9 15 19 17 14 14 20 15 10 11 12 12 12 11 14 15 14 14 12 12 13 14 11 11 8 12 9 10 10 11 11 15
1 0 -1 -3 -2 -1 1 6 12 16 16 16 16 15 16 15 15 12 15 17 15 15 14 14 12 15 16 16 14 13 11 18 11 11 11 12 11 8 10 12 12 15 10
31 24 17 15 12 11 10 11 10 10 13 13 14 12 11 13 14 13 15 15 15 16 17 18 19 19 15 16 15 14 18 14 13 10 11 12 8 10 13 13 13 10 11
9 9 12 14 14 12 12 11 10 13 12 15 15 14 14 15 16 15 15 15 16 16 17 15 10 11 16 18 17 16 18 11 10 10 11 11 10 12 14 13 9 11 14
0 5 5 4 5 6 9 10 10 10 11 12 14 16 17 16 15 15 15 18 18 19 21 18 18 17 19 20 18 16 12 11 10 12 11 12 14 14 12 8 11 14 18
Height
3093 3091 3090 3089 3087 3086 3085 3084 3082 3080 3076 3071 3067 3064 3060 3057 3055 3051 3047 3043 3039 3034 3031 3028 3024 3022 3021 3020 3021 3023 3024 3026 3026 3029 3030 3031 3032 3030 3031 3031 3031 3031 3030
3091 3089 3088 3086 3085 3085 3084 3082 3081 3077 3073 3069 3066 3063 3059 3056 3053 3049 3045 3042 3039 3035 3031 3028 3026 3024 3021 3021 3021 3021 3021 3021 3021 3022 3023 3022 3023 3023 3023 3023 3023 3022 3021
3088 3087 3085 3084 3083 3083 3082 3081 3078 3074 3071 3067 3064 3060 3057 3054 3051 3048 3044 3040 3037 3034 3031 3028 3026 3023 3021 3021 3020 3020 3019 3019 3018 3019 3019 3019 3018 3017 3017 3016 3015 3014 3012
3085 3083 3081 3081 3080 3080 3079 3077 3074 3071 3068 3065 3061 3058 3055 3052 3049 3046 3042 3039 3036 3033 3030 3027 3024 3023 3021 3019 3017 3016 3016 3016 3015 3014 3013 3013 3012 3011 3010 3010 3009 3007 3006
3080 3079 3078 3077 3077 3077 3075 3073 3070 3067 3064 3061 3058 3055 3052 3050 3047 3044 3040 3037 3034 3031 3028 3025 3023 3020 3018 3017 3015 3013 3012 3010 3008 3007 3006 3005 3004 3004 3003 3003 3001 3001 3000
3076 3075 3074 3074 3073 3072 3070 3068 3065 3062 3060 3057 3054 3051 3048 3046 3043 3040 3037 3034 3031 3028 3025 3022 3020 3017 3015 3013 3011 3009 3008 3006 3004 3003 3001 2999 2998 2997 2996 2996 2996 2994 2992
3070 3070 3069 3068 3068 3066 3065 3062 3060 3057 3054 3051 3049 3046 3044 3041 3038 3036 3033 3030 3027 3024 3021 3018 3015 3013 3011 3009 3007 3006 3003 3001 3000 2998 2997 2995 2994 2992 2990 2988 2987 2985 2984
3065 3064 3063 3063 3062 3060 3058 3056 3053 3051 3049 3046 3044 3041 3039 3036 3034 3030 3027 3025 3022 3019 3016 3013 3011 3008 3006 3004 3002 3000 2998 2996 2995 2993 2991 2989 2988 2986 2985 2983 2980 2977 2974
3058 3057 3056 3055 3054 3052 3050 3048 3046 3044 3042 3040 3038 3035 3033 3030 3027 3024 3022 3019 3017 3014 3012 3009 3006 3003 3001 2998 2996 2994 2993 2990 2988 2986 2984 2982 2980 2978 2977 2974 2972 2969 2966
3049 3048 3048 3047 3046 3045 3043 3041 3039 3037 3035 3032 3030 3027 3025 3023 3019 3017 3014 3012 3010 3007 3005 3002 3000 2997 2995 2992 2990 2988 2986 2984 2982 2980 2977 2974 2972 2970 2968 2966 2963 2961 2958
3041 3041 3040 3039 3037 3036 3034 3032 3030 3028 3025 3023 3021 3019 3016 3014 3011 3008 3005 3003 3001 2999 2997 2995 2991 2989 2987 2984 2982 2980 2978 2976 2974 2971 2969 2967 2964 2962 2960 2958 2955 2953 2951
3031 3031 3030 3029 3027 3025 3023 3022 3020 3017 3015 3014 3012 3010 3008 3005 3002 2999 2996 2994 2992 2990 2988 2986 2983 2981 2979 2976 2974 2972 2970 2968 2965 2963 2961 2959 2957 2955 2952 2950 2947 2945 2942
3021 3020 3019 3018 3017 3015 3012 3010 3008 3005 3003 3003 3000 2999 2998 2994 2992 2990 2987 2984 2982 2981 2979 2977 2975 2972 2970 2967 2965 2963 2961 2959 2957 2955 2953 2951 2948 2946 2944 2942 2939 2936 2933
3011 3010 3008 3006 3005 3002 3000 2997 2995 2993 2991 2990 2988 2987 2986 2984 2982 2980 2977 2975 2973 2971 2969 2967 2966 2964 2962 2959 2956 2954 2952 2950 2949 2947 2945 2943 2941 2938 2935 2933 2931 2928 2925
3001 2998 2996 2994 2992 2991 2988 2986 2984 2983 2980 2979 2978 2976 2975 2975 2973 2970 2968 2966 2964 2961 2959 2958 2957 2954 2952 2950 2947 2945 2943 2941 2939 2937 2936 2934 2931 2930 2927 2925 2922 2920 2917
2989 2987 2986 2984 2982 2980 2978 2978 2975 2973 2971 2970 2968 2966 2965 2964 2962 2959 2957 2956 2954 2950 2949 2949 2947 2944 2942 2939 2937 2936 2934 2932 2930 2928 2927 2925 2923 2921 2918 2916 2914 2911 2909
2979 2977 2975 2973 2971 2970 2968 2968 2968 2964 2963 2961 2959 2957 2955 2955 2952 2950 2948 2946 2944 2942 2940 2939 2937 2934 2932 2929 2927 2926 2925 2923 2921 2920 2918 2916 2914 2912 2910 2908 2906 2904 2901
2969 2968 2968 2965 2963 2961 2959 2958 2958 2957 2956 2955 2951 2949 2946 2944 2943 2940 2937 2935 2934 2931 2930 2929 2928 2925 2922 2919 2917 2915 2914 2913 2911 2910 2909 2907 2905 2904 2902 2900 2899 2896 2893
2962 2960 2959 2958 2956 2955 2953 2951 2949 2948 2946 2945 2943 2941 2937 2936 2934 2931 2928 2926 2924 2922 2918 2916 2915 2914 2911 2909 2907 2905 2904 2903 2902 2900 2899 2898 2896 2895 2894 2892 2890 2888 2886
2954 2953 2953 2951 2949 2948 2946 2945 2943 2941 2940 2938 2936 2933 2929 2926 2924 2921 2917 2914 2912 2911 2908 2906 2903 2902 2900 2898 2896 2895 2894 2892 2892 2891 2891 2890 2888 2887 2885 2883 2882 2880 2878
2948 2947 2946 2944 2943 2941 2939 2937 2935 2932 2930 2929 2926 2923 2920 2916 2914 2911 2908 2904 2900 2898 2896 2894 2892 2890 2888 2887 2886 2884 2884 2883 2882 2882 2881 2880 2880 2878 2877 2875 2873 2872 2870
2943 2941 2940 2938 2935 2932 2930 2927 2924 2921 2919 2916 2913 2910 2906 2903 2900 2898 2895 2893 2889 2886 2883 2881 2879 2878 2877 2876 2875 2874 2874 2873 2873 2873 2873 2872 2871 2870 2869 2867 2865 2864 2863
2935 2933 2931 2929 2926 2923 2920 2917 2914 2910 2907 2903 2899 2896 2893 2889 2886 2883 2880 2878 2876 2873 2871 2869 2867 2866 2865 2865 2864 2864 2863 2863 2863 2863 2864 2864 2863 2862 2861 2859 2858 2857 2856
2927 2924 2921 2920 2916 2912 2909 2906 2903 2899 2895 2891 2887 2883 2880 2877 2873 2870 2867 2864 2862 2861 2859 2857 2855 2854 2854 2853 2854 2854 2855 2854 2854 2854 2855 2856 2855 2854 2853 2851 2851 2850 2849
2917 2914 2911 2908 2905 2901 2897 2894 2891 2888 2883 2879 2876 2872 2868 2864 2861 2858 2855 2852 2851 2849 2847 2845 2844 2843 2843 2843 2843 2843 2845 2845 2847 2846 2847 2847 2846 2846 2845 2844 2844 2843 2842
2907 2904 2900 2897 2893 2889 2885 2882 2879 2876 2871 2867 2863 2859 2856 2853 2850 2847 2843 2841 2838 2837 2835 2834 2834 2834 2834 2834 2835 2836 2837 2838 2839 2840 2840 2839 2838 2838 2838 2837 2837 2836 2835